Powrót do katalogu

STARLINK-4395

AktywnyŁącznośćSSO
NORAD 53199·PAYLOAD·🇺🇸 United States

Wystrzelony Jul 22, 2022 z Vandenberg Space Force Base

Loading…

Następne Przeloty (najbliższe 24 godziny)

TLE

ŚwieżeSource: CelesTrak SupGP

Epoka: Sep 14, 2026, 22:19 UTC

1 53199C 22084L   26257.93034722  .00004161  00000+0  12928-3 0  2578
2 53199  97.2844 313.6466 0001554  91.7284  91.8219 15.33412579    19

Śledź STARLINK-4395 w czasie rzeczywistym z AllMySat

Download on the App Store